Flag for Canada Weather past 2 weeks in St. Albert, Alberta, Canada

Now
16 °F

Light snow. Passing clouds.


Feels Like: 10 °F
Forecast: 6 / 15 °F
Wind: 3 mph from Northwest

Location: Edmonton Municipal

Current Time: Dec 25, 2014 at 10:19:47 PM

Latest Report: Dec 25, 2014 at 10:00 PM


Visibility: 1 mi

Pressure: 30.15 "Hg

Humidity: 86%

Dew point: 12 °F

Location of St. AlbertLocation

Historic Weather in St. Albert — Graph

°F

St. Albert temperature yesterday

Maximum temperature yesterday: 34 °F (at 5:00 AM)
Minimum temperature yesterday: 10 °F (at 11:00 PM)
Average temperature yesterday: 26 °F

Past Weeks' High & Low Weather Summary

 TemperatureHumidityPressure
High48 °F (Dec 11, 1:00 PM)100% (Dec 15, 9:00 AM)30.43 "Hg (Dec 15, 9:00 AM)
Low9 °F (Dec 15, 7:00 AM)53% (Dec 11, 10:00 AM)29.21 "Hg (Dec 11, 5:00 AM)
Average25 °F80%29.88 "Hg
* Reported Dec 10 9:00 PM — Dec 25 9:00 PM, St. Albert, Weather by CustomWeather, © 2014

Note: Actual official high and low records may vary slightly from our data, if they occured in-between our weather recording intervals... More about our weather records

Advertising

St. Albert weather history for previous 24 hours

 ConditionsComfort  
Time TempWeatherWind HumidityBarometerVisibility
9:00 PM
Dec 25
18 °FLight snow. Overcast.5 mph86%30.14 "Hg4 mi
8:02 PM18 °FOvercast.2 mph86%29.98 "Hg8 mi
7:57 PM19 °FLight snow. Mostly cloudy.No wind79%29.97 "Hg6 mi
7:00 PM18 °FLight snow. Overcast.2 mph86%30.10 "Hg2 mi
6:47 PM18 °FLight snow. Overcast.No wind86%29.96 "Hg2 mi
6:00 PM18 °FLight snow. Overcast.6 mph86%30.09 "Hg1 mi
5:00 PM18 °FLight snow. Passing clouds.7 mph86%30.07 "Hg1 mi
4:00 PM18 °FLight snow. Ice fog.6 mph86%30.06 "Hg1 mi
3:03 PM18 °FLight snow. Overcast.6 mph79%29.91 "Hg4 mi
3:00 PM18 °FOvercast.7 mph79%30.04 "Hg5 mi
2:00 PM18 °FOvercast.7 mph79%30.04 "Hg9 mi
1:00 PM16 °FOvercast.6 mph86%30.05 "Hg9 mi
12:03 PM16 °FMore clouds than sun.6 mph79%29.92 "Hg9 mi
11:00 AM14 °FPartly sunny.3 mph85%30.08 "Hg9 mi
10:00 AM14 °FLow clouds.No wind85%30.08 "Hg9 mi
9:00 AM12 °FLow clouds.No wind92%30.06 "Hg9 mi
8:00 AM12 °FLow clouds.3 mph92%30.04 "Hg9 mi
7:00 AM12 °FLow clouds.3 mph85%30.05 "Hg9 mi
6:00 AM12 °FLow clouds.2 mph85%30.04 "Hg9 mi
5:00 AM12 °FLow clouds.5 mph85%30.03 "Hg9 mi
4:00 AM12 °FOvercast.5 mph85%30.02 "Hg9 mi
3:00 AM12 °FOvercast.5 mph85%30.01 "Hg9 mi
2:02 AM12 °FMostly cloudy.5 mph85%29.87 "Hg9 mi
1:00 AM12 °FOvercast.6 mph85%29.97 "Hg9 mi
12:00 AM12 °FMostly cloudy.2 mph85%29.95 "Hg9 mi
11:00 PM
Dec 24
10 °FClear.5 mph85%29.94 "Hg9 mi
10:00 PM12 °FPartly cloudy.7 mph85%29.91 "Hg9 mi
Weather by CustomWeather, © 2014

See weather overviewHow to use our weather pages